Skip Page Navigation
NASA JPL Caltech
NASA Logo - Jet Propulsion Laboratory + View the NASA Portal
+ Center for Near-Earth Object Studies
JPL Home Earth Solar System Stars & Galaxies Technology
JPL Solar System Dynamics
BODIES ORBITS EPHEMERIDES TOOLS PHYSICAL DATA DISCOVERY FAQ SITE MAP
IMPORTANT: The SSD Announcement email list is now available. Major changes are coming in the near future, including possible hostname and/or URL changes. To be notified of such changes, subscribe to this email list.

Please visit this page for more details.


JPL Small-Body Database Browser
Search: [ help ]  
295392 (2008 JT6)
Classification: Main-belt Asteroid          SPK-ID: 2295392
Ephemeris | Orbit Diagram | Orbital Elements | Mission Design | Physical Parameters | Discovery Circumstances | Close-Approach Data ]

[ show orbit diagram ]
Orbital Elements at Epoch 2458600.5 (2019-Apr-27.0) TDB
Reference: JPL 11 (heliocentric ecliptic J2000)
 Element Value Uncertainty (1-sigma)   Units 
e .1760597127966876 5.3874e-08  
a 2.230120829265891 1.8405e-08 au
q 1.837486396563428 1.2861e-07 au
i 3.507627780756964 4.7733e-06 deg
node 184.9572952551665 8.8858e-05 deg
peri 144.3064331769021 9.1883e-05 deg
M 26.16806367030445 1.982e-05 deg
tp 2458512.078046616273
(2019-Jan-28.57804662)
6.6708e-05 TDB
period 1216.440911303065
3.33
1.5059e-05
4.123e-08
d
yr
n .2959453243103801 3.6636e-09 deg/d
Q 2.622755261968355 2.1645e-08 au
  Orbit Determination Parameters
   # obs. used (total)      178  
   data-arc span      5718 days (15.66 yr)  
   first obs. used      2002-10-10  
   last obs. used      2018-06-06  
   planetary ephem.      DE431  
   SB-pert. ephem.      SB431-N16  
   condition code      0  
   norm. resid. RMS      .47654  
   source      ORB  
   producer      Otto Matic  
   solution date      2019-Jul-14 11:03:51  

Additional Information
 Earth MOID = .827025 au 
 Jupiter MOID = 2.72002 au 
 T_jup = 3.620 
[ show covariance matrix ]

Ephemeris | Orbit Diagram | Orbital Elements | Mission Design | Physical Parameters | Discovery Circumstances | Close-Approach Data ]

Physical Parameter Table
Parameter Symbol Value Units Sigma Reference Notes
absolute magnitude H 17.7   n/a MPO446423  

295392 (2008 JT6)          Discovered 2008-May-02 by Spacewatch at Kitt Peak
Reference: 20110912/Numbers.arcLast Updated: 2011-09-14

[ show close-approach data ]
Alternate Designations
 2008 JT6 = 2002 TS262 
Ephemeris | Orbit Diagram | Orbital Elements | Mission Design | Physical Parameters | Discovery Circumstances | Close-Approach Data ]
ABOUT SSD CREDITS/AWARDS PRIVACY/COPYRIGHT GLOSSARY LINKS
FirstGov
(server date/time)  
NASA Home Page
Site Manager:   Ryan S. Park
Webmaster  Alan B. Chamberlin